This demonstration page uses our WeatherBlox Daily Observations layout. Learn more.

Left ArrowRight Arrow

38.20091, -84.87328

Hourly Observations for August 27, 2018

Temp ( °F °C ) Dew Point ( °F °C ) Humidity (%) Winds ( mph kmh ) Pressure ( in mb ) Visibility ( mi km ) Precip ( " mm )
12:53 am 00:53 Clear 79 26.1 73 22.8 82 82 SSW 7 11 30.10 1019 10 16 0.00 0.00
1:53 am 01:53 Clear 77 25 72 22.2 85 85 SSW 6 9 30.09 1019 10 16 0.00 0.00
2:53 am 02:53 Clear 77 25 72 22.2 85 85 SSW 5 7 30.07 1018 10 16 0.00 0.00
3:53 am 03:53 Clear 76 24.4 72 22.2 88 88 S 6 9 30.07 1018 10 16 0.00 0.00
4:53 am 04:53 Clear 76 24.4 71 21.7 85 85 S 5 7 30.08 1019 10 16 0.00 0.00
5:53 am 05:53 Clear 75 23.9 71 21.7 88 88 S 3 6 30.09 1019 10 16 0.00 0.00
6:53 am 06:53 Clear 74 23.3 70 21.1 88 88 S 5 7 30.10 1019 10 16 0.00 0.00
7:53 am 07:53 Sunny 75 23.9 71 21.7 88 88 S 3 6 30.11 1020 9 14 0.00 0.00
8:53 am 08:53 Mostly Sunny 78 25.6 71 21.7 79 79 SW 7 11 30.13 1020 10 16 0.00 0.00
9:53 am 09:53 Mostly Cloudy 80 26.7 70 21.1 71 71 SW 9 15 30.14 1021 10 16 0.00 0.00
10:53 am 10:53 Mostly Sunny 84 28.9 72 22.2 67 67 SW 7 11 30.15 1021 10 16 0.00 0.00
11:53 am 11:53 Sunny 86 30 72 22.2 63 63 WSW 8 13 30.14 1021 10 16 0.00 0.00
12:53 pm 12:53 Sunny 87 30.6 72 22.2 61 61 WSW 8 13 30.13 1020 10 16 0.00 0.00
1:53 pm 13:53 Sunny 89 31.7 72 22.2 57 57 SSW 7 11 30.11 1020 10 16 0.00 0.00
2:53 pm 14:53 Mostly Cloudy 89 31.7 72 22.2 57 57 SW 9 15 30.10 1019 10 16 0.00 0.00
3:53 pm 15:53 Mostly Sunny 89 31.7 72 22.2 57 57 SW 10 17 30.08 1019 10 16 0.00 0.00
4:53 pm 16:53 Sunny 89 31.7 71 21.7 55 55 SW 12 19 30.07 1018 10 16 0.00 0.00
5:53 pm 17:53 Sunny 88 31.1 70 21.1 55 55 SW 9 15 30.06 1018 10 16 0.00 0.00
6:53 pm 18:53 Sunny 87 30.6 70 21.1 57 57 SSW 7 11 30.06 1018 10 16 0.00 0.00
7:53 pm 19:53 Sunny 84 28.9 70 21.1 63 63 S 6 9 30.05 1018 10 16 0.00 0.00
8:53 pm 20:53 Clear 79 26.1 71 21.7 77 77 S 3 6 30.05 1018 10 16 0.00 0.00
9:53 pm 21:53 Clear 79 26.1 71 21.7 77 77 SSE 6 9 30.06 1018 10 16 0.00 0.00
10:53 pm 22:53 Clear 79 26.1 70 21.1 74 74 S 5 7 30.06 1018 10 16 0.00 0.00
11:53 pm 23:53 Clear 77 25 70 21.1 79 79 S 5 7 30.06 1018 10 16 0.00 0.00

Powered by AerisWeather